Location: Holyhead Bay
(53.3667°N, 4.6667°W)
Time: 05:32:50
(UTC+00:00)

Okean O Rocket - Pass Details

Date: 24 November 2020
Orbit: 622 x 645 km, 98.2° (Epoch: 23 January)

Event Time Altitude Azimuth Distance (km) Brightness Sun altitude
Rises 18:41:18 0° 200° (SSW) 2,897 5.3 -21.8°
Reaches altitude 10° 18:43:53 10° 215° (SW) 1,999 4.7 -22.2°
Maximum altitude 18:47:19 23° 268° (W) 1,357 4.1 -22.7°
Drops below altitude 10° 18:50:48 10° 321° (NW) 2,021 4.6 -23.2°
Sets 18:53:26 0° 336° (NNW) 2,939 5.3 -23.6°
